Погода в Темиртау

Казахстан     50°03′31″N   72°57′12″E
темп.,
°C
ветер,
м/с
пор.,
м/с
влажн.,
%
обл.,
%
осадки,
мм/ч
давл.,
гПа
погр.,
м
25 января, пн
пн2500:00−26ю339949 0.0 104719
03:00−25ююз339760 0.0 104634
06:00−21ююз369580 0.0 1044175
09:00−18ююз5891100 0.0 1041245
12:00−15юз699396 0.1 1040324
15:00−13юз81292100 0.2 1037452
18:00−13зюз71294100 0.5 1037485
21:00−15зюз61095100 0.3 1038312
26 января, вт
вт2600:00−15юз6995100 0.4 1038259
03:00−15юз599698 0.2 1038222
06:00−15юз479699 0.3 1038148
09:00−13юз5795100 0.1 1039201
12:00−10юз5794100 0.3 1039238
15:00−8юз5795100 0.1 1038265
18:00−11юз4797100 0.1 1038117
21:00−11юз4796100 0.1 1039130
27 января, ср
ср2700:00−12юз479798 0.2 1039118
03:00−9юз5795100 0.1 1039189
06:00−8юз4795100 0.3 1038213
09:00−8юз4796100 0.1 1039184
12:00−6зюз5795100 0.1 1038376
15:00−5зюз579393 0.0 1038410
18:00−7зюз359694 0.1 1038152
21:00−6юз3596100 0.1 1039143
28 января, чт
чт2800:00−7юз4696100 0.1 1039158
03:00−9зюз3497100 0.1 103964
06:00−10зюз3397100 0.1 103847
09:00−9юз2396100 0.1 103991
12:00−8юз2395100 0.1 1039183
15:00−7юз229398 0.0 1038181
18:00−11юз229463 0.0 103821
21:00−12ююз22910 0.0 103821
29 января, пт
пт2900:00−11ююз22870 0.0 103821
03:00−11ююз23810 0.0 103821
06:00−11ююз23770 0.0 103821
09:00−11ююз23750 0.0 103821
12:00−6ююз23770 0.0 1037105
15:00−4юз23800 0.0 1036116
18:00−8ююз22720 0.0 103621
21:00−9ю22670 0.0 103621